Regional Weather Roundup
Issued by NWS Northern Indiana

Home | Current Version | Previous Version | Text Only | Print | Product List | Glossary On
Versions: 1 2 3 4 5 6 7 8 9 10 11 12 13 14 15 16 17 18 19 20 21 22 23 24 25 26 27 28 29 30 31 32 33 34 35 36 37 38 39 40 41 42 43 44 45 46 47 48 49 50
000
ASUS43 KIWX 020210
RWRIWX

KIWX WEATHER ROUNDUP
NATIONAL WEATHER SERVICE NORTHERN INDIANA
1000 PM EDT WED OCT 01 2014

NOTE: "FAIR" INDICATES FEW OR NO CLOUDS BELOW 12,000 FEET WITH NO
SIGNIFICANT WEATHER AND/OR OBSTRUCTIONS TO VISIBILITY.

* THESE STATIONS ARE NOT UNDER NWS QUALITY CONTROL. THEY ALSO MAY NOT
  REPORT WEATHER SUCH AS PRECIPITATION OR FOG.

INZ001>027-020300-
NORTHERN INDIANA

CITY           SKY/WX    TMP DP  RH WIND       PRES   REMARKS
GARY*          PTCLDY    66  50  55 SE14      29.92S
VALPARAISO     PTCLDY    57  51  80 E8        29.95R
MICHIGAN CITY* PTCLDY    61  46  59 E6        29.95S
LAPORTE*       PTCLDY    59  52  77 E7        29.97R
KNOX*          CLEAR     59  50  73 SE8       29.95S
SOUTH BEND     NOT AVBL
GOSHEN         CLEAR     57  50  77 SE7       29.99R
MONTICELLO*    PTCLDY    63  52  68 E6        29.94S
LOGANSPORT*    CLEAR     55  48  76 E8        29.97S
ROCHESTER*     CLEAR     59  52  77 E6        29.98S
WARSAW*        CLEAR     54  50  87 E5        29.99S
ANGOLA*        CLEAR     57  48  72 SE5       30.02R
FORT WAYNE     PTCLDY    57  50  77 E5        30.01S
HUNTINGTON*    CLEAR     56  50  78 E5        30.00R
PERU/GRISSOM   CLEAR     58  54  85 E7        29.97S
MARION*        CLEAR     55  47  75 E5        29.99S

$$
INZ028>050-020300-
CENTRAL INDIANA

CITY           SKY/WX    TMP DP  RH WIND       PRES   REMARKS
LAFAYETTE      PTCLDY    64  55  72 E7        29.94R
KOKOMO*        CLEAR     57  48  72 SE7       29.98S
MUNCIE*        CLEAR     61  50  67 SE6       30.00R
INDIANAPOLIS   PTCLDY    68  55  63 E10       29.95S

$$
MIZ043>046-050>051-056>058-064>065-071>073-077>080-020300-
SOUTHWEST LOWER MICHIGAN

CITY           SKY/WX    TMP DP  RH WIND       PRES   REMARKS
BATTLE CREEK   CLEAR     57  48  72 SE6       30.01S
BENTON HARBOR  PTCLDY    59  50  72 SE7       29.96R
COLDWATER*     CLEAR     57  49  77 CALM      30.01S
HILLSDALE*     CLEAR     53  50  90 SE3       30.03S
HOLLAND        PTCLDY    59  51  75 SE7       29.98
STURGIS*       CLEAR     57  48  72 SE6       30.00S
THREE RIVERS*  FAIR      58  51  76 SE3       30.00S

$$
OHZ001>008-015>018-024>025-020300-
NORTHWEST OHIO

CITY           SKY/WX    TMP DP  RH WIND       PRES   REMARKS
WAUSEON*       FAIR      52  50  93 CALM      30.03R FOG
DEFIANCE       CLEAR     52  48  86 CALM      30.02S
FINDLAY        CLEAR     58  52  80 E7        30.02R
TOLEDO EXPRESS CLEAR     53  52  96 CALM      30.03R FOG
TOLEDO METCALF CLEAR     56  53  90 E5        30.04R
LIMA           CLEAR     53  48  83 E5        30.02S

$$
AND FOR LAKE MICHIGAN COASTAL AND OPEN LAKE BUOY OBSERVATIONS

STATION/POSITION TEMP    WIND        PRES    VSBY  WAVE
                 AIR SEA DIR/SP/G                  HT/PER
                 (F)     (DEG/KT/KT) (MB)    (MI)  (FT/S)
CALUMET HARBOR    67     110/ 10/ 15 1011.9S
MICHIGAN CITY     64     110/ 10/ 13   N/A
SAINT JOSEPH      61      CALM  /  3 1014.6S
SOUTH LAKE BUOY   63 62  130/ 12/ 14 1014.1S         2/ 3
4 MI NW BRIDGMAN  63 63  110/ 12/ 17   N/A           1/ 2
MICHIGAN CITY     65 64  140/ 14/ 17   N/A           1/ 2

$$
&&



USA.gov is the U.S. government's official web portal to all federal, state and local government web resources and services.